Location: Sungai Bunut
(2.6333°N, 113.7333°E)
Time: 02:48:17
(UTC+00:00)

S-56A Canister/Altair - Pass Details

Date: 12 December 2023
Orbit: 640 x 2488 km, 38.9° (Epoch: 24 February)

Event Time Altitude Azimuth Distance (km) Brightness Sun altitude
Rises 08:06:30 0° 340° (NNW) 3,108 10.6 28.9°
Reaches altitude 10° 08:09:17 10° 359° (N) 2,346 9.9 28.3°
Maximum altitude 08:13:14 20° 45° (NE) 2,012 9.3 27.4°
Drops below altitude 10° 08:18:10 10° 90° (E) 3,031 10.2 26.3°
Sets 08:22:24 0° 105° (ESE) 4,367 11.0 25.4°
